Boulder Muni, Boulder, CO, CO

9:02 AM MST on November 18, 2019 (GMT -0700)
Boulder Muni, Boulder, CO

Weather History for KBDU - October, 2019

Change the Weather History Date:

Wednesday, October 23, 2019

  Actual Average Record
Temperature  
Mean Temperature 44 °F -  
Max Temperature 55 °F - 73 °F (2014)
Min Temperature 32 °F - 32 °F (2019)
Degree Days  
Heating Degree Days 21    
Month to date heating degree days 332  
Cooling Degree Days 0    
Month to date cooling degree days 0  
Moisture  
Dew Point 28 °F    
Average Humidity 62    
Maximum Humidity 100    
Minimum Humidity 24    
Precipitation  
Precipitation 0.19 in - 0.19 in (2019)
Snow  
Snow 0.00 in - - ()
Snow Depth 0.00 in    
Sea Level Pressure  
Sea Level Pressure 30.10 in    
Wind  
Wind Speed 8 mph (NE)    
Max Wind Speed 16 mph    
Max Gust Speed 23 mph    
Visibility 8 miles    
Events Rain , Snow    
T = Trace of Precipitation, MM = Missing Value Source: NWS Daily Summary

Daily Weather History Graph

Daily Weather History Graph

Search for Another Location

Airport or City:

Astronomy

Oct. 23, 2019 Rise Set
Actual Time 7:19 AM MDT 6:10 PM MDT
Civil Twilight 6:52 AM MDT 6:37 PM MDT
Nautical Twilight 6:20 AM MDT 7:09 PM MDT
Astronomical Twilight 5:49 AM MDT 7:40 PM MDT
Moon 1:41 AM MDT (10/23) 4:02 PM MDT (10/23)
Length of Visible Light 11h 45m
Length of Day
10h 50m
Waning Crescent, 26% of the Moon is Illuminated
Oct 23
Waning Crescent
Oct 27
New
Nov 4
First Quarter
Nov 12
Full
Nov 19
Last Quarter

Hourly Weather History & Observations

Time (MDT) Temp. Windchill Dew Point Humidity Pressure Visibility Wind Dir Wind Speed Gust Speed Precip Events Conditions
12:12 AM 57.2 °F - 23.0 °F 27% 29.91 in 10.0 mi NE 3.5 mph - N/A   Clear
12:30 AM 53.6 °F - 23.0 °F 30% 29.90 in 10.0 mi East 6.9 mph 17.3 mph N/A   Clear
12:54 AM 53.6 °F - 24.8 °F 33% 29.91 in 10.0 mi ENE 8.1 mph - N/A   Clear
1:11 AM 53.6 °F - 24.8 °F 33% 29.90 in 10.0 mi East 5.8 mph - N/A   Clear
1:29 AM 55.4 °F - 23.0 °F 29% 29.90 in 10.0 mi NE 9.2 mph - N/A   Clear
1:53 AM 55.4 °F - 23.0 °F 29% 29.88 in 10.0 mi NNE 5.8 mph - N/A   Clear
2:12 AM 53.6 °F - 23.0 °F 30% 29.90 in 10.0 mi NNE 9.2 mph - N/A   Clear
2:30 AM 55.4 °F - 21.2 °F 26% 29.90 in 10.0 mi North 5.8 mph 20.7 mph N/A   Clear
2:48 AM 55.4 °F - 23.0 °F 29% 29.89 in 10.0 mi ESE 13.8 mph 21.9 mph N/A   Clear
3:12 AM 53.6 °F - 21.2 °F 28% 29.90 in 10.0 mi West 8.1 mph 26.5 mph N/A   Clear
3:30 AM 55.4 °F - 19.4 °F 25% 29.91 in 10.0 mi NW 4.6 mph 23.0 mph N/A   Clear
3:48 AM 55.4 °F - 19.4 °F 25% 29.92 in 10.0 mi North 4.6 mph 21.9 mph N/A   Clear
4:11 AM 53.6 °F - 17.6 °F 24% 29.93 in 10.0 mi WNW 18.4 mph 28.8 mph N/A   Clear
4:29 AM 53.6 °F - 17.6 °F 24% 29.93 in 10.0 mi WNW 11.5 mph 21.9 mph N/A   Clear
4:53 AM 53.6 °F - 17.6 °F 24% 29.96 in 10.0 mi West 10.4 mph 18.4 mph N/A   Clear
5:12 AM 51.8 °F - 24.8 °F 35% 29.96 in 10.0 mi WSW 16.1 mph 21.9 mph N/A   Clear
5:29 AM 51.8 °F - 24.8 °F 35% 29.98 in 10.0 mi West 20.7 mph 27.6 mph N/A   Clear
5:53 AM 50.0 °F - 26.6 °F 40% 30.00 in 10.0 mi West 6.9 mph - N/A   Clear
6:13 AM 50.0 °F - 26.6 °F 40% 30.02 in 10.0 mi WNW 10.4 mph - N/A   Clear
6:31 AM 50.0 °F - 26.6 °F 40% 30.01 in 10.0 mi NW 11.5 mph 21.9 mph N/A   Clear
6:49 AM 50.0 °F - 23.0 °F 35% 30.03 in 10.0 mi WNW 11.5 mph 18.4 mph N/A   Clear
7:12 AM 41.0 °F 35.2 °F 28.4 °F 61% 30.04 in 10.0 mi East 9.2 mph - N/A   Clear
7:30 AM 37.4 °F 31.4 °F 30.2 °F 75% 30.06 in 10.0 mi ESE 8.1 mph - N/A   Clear
7:48 AM 37.4 °F 32.1 °F 30.2 °F 75% 30.07 in 10.0 mi East 6.9 mph - N/A   Clear
8:12 AM 39.2 °F 34.2 °F 32.0 °F 75% 30.08 in 10.0 mi SE 6.9 mph - N/A   Clear
8:30 AM 41.0 °F 35.2 °F 30.2 °F 65% 30.09 in 10.0 mi SE 9.2 mph - N/A   Clear
8:48 AM 41.0 °F 34.7 °F 32.0 °F 70% 30.09 in 10.0 mi SE 10.4 mph - N/A   Clear
9:12 AM 42.8 °F 37.0 °F 32.0 °F 66% 30.08 in 10.0 mi SE 10.4 mph - N/A   Clear
9:30 AM 42.8 °F 36.6 °F 32.0 °F 66% 30.07 in 10.0 mi SE 11.5 mph - N/A   Clear
9:48 AM 44.6 °F 38.8 °F 32.0 °F 61% 30.07 in 10.0 mi ESE 11.5 mph 16.1 mph N/A   Clear
10:12 AM 46.4 °F 41.5 °F 32.0 °F 57% 30.06 in 10.0 mi ESE 10.4 mph - N/A   Clear
10:30 AM 46.4 °F 42.4 °F 32.0 °F 57% 30.06 in 10.0 mi ESE 8.1 mph 11.5 mph N/A   Clear
10:48 AM 50.0 °F - 32.0 °F 50% 30.06 in 10.0 mi East 5.8 mph - N/A   Clear
11:12 AM 50.0 °F - 30.2 °F 47% 30.07 in 10.0 mi East 8.1 mph - N/A   Clear
11:30 AM 50.0 °F - 32.0 °F 50% 30.06 in 10.0 mi East 11.5 mph 16.1 mph N/A   Clear
11:54 AM 50.0 °F - 30.2 °F 47% 30.07 in 10.0 mi East 9.2 mph - N/A   Clear
12:12 PM 50.0 °F - 30.2 °F 47% 30.07 in 10.0 mi East 9.2 mph - N/A   Scattered Clouds
12:30 PM 50.0 °F - 28.4 °F 43% 30.07 in 10.0 mi ENE 10.4 mph - N/A   Mostly Cloudy
12:54 PM 51.8 °F - 28.4 °F 41% 30.07 in 10.0 mi ENE 8.1 mph - N/A   Mostly Cloudy
1:12 PM 50.0 °F - 30.2 °F 47% 30.07 in 10.0 mi NNE 18.4 mph 21.9 mph N/A   Mostly Cloudy
1:29 PM 44.6 °F 38.4 °F 32.0 °F 61% 30.08 in 10.0 mi NNE 12.7 mph 24.2 mph N/A   Overcast
1:53 PM 44.6 °F 37.4 °F 32.0 °F 61% 30.08 in 10.0 mi NNE 16.1 mph 23.0 mph N/A   Overcast
2:11 PM 42.8 °F 36.2 °F 32.0 °F 66% 30.07 in 10.0 mi NNE 12.7 mph 18.4 mph N/A   Light Drizzle
2:29 PM 42.8 °F 36.6 °F 32.0 °F 66% 30.08 in 10.0 mi NNE 11.5 mph - N/A   Overcast
2:53 PM 44.6 °F 39.7 °F 32.0 °F 61% 30.08 in 10.0 mi North 9.2 mph - N/A Rain Light Rain
3:12 PM 44.6 °F 41.4 °F 30.2 °F 57% 30.10 in 10.0 mi NNW 5.8 mph - N/A   Overcast
3:30 PM 46.4 °F 41.9 °F 28.4 °F 50% 30.10 in 10.0 mi North 9.2 mph - N/A   Overcast
3:54 PM 44.6 °F 38.8 °F 26.6 °F 49% 30.11 in 10.0 mi North 11.5 mph 16.1 mph N/A   Overcast
4:12 PM 42.8 °F 35.4 °F 28.4 °F 57% 30.11 in 10.0 mi NNE 15.0 mph 20.7 mph N/A   Overcast
4:30 PM 42.8 °F 36.6 °F 28.4 °F 57% 30.13 in 10.0 mi NNE 11.5 mph 17.3 mph N/A   Overcast
4:54 PM 42.8 °F 37.5 °F 26.6 °F 53% 30.15 in 10.0 mi North 9.2 mph 13.8 mph N/A   Overcast
5:12 PM 42.8 °F 38.6 °F 24.8 °F 49% 30.14 in 10.0 mi North 6.9 mph 21.9 mph N/A   Overcast
5:30 PM 42.8 °F 37.5 °F 19.4 °F 39% 30.16 in 10.0 mi NNE 9.2 mph - N/A   Overcast
5:48 PM 42.8 °F 36.2 °F 19.4 °F 39% 30.17 in 10.0 mi NNE 12.7 mph 18.4 mph N/A   Overcast
6:13 PM 41.0 °F 31.4 °F 28.4 °F 61% 30.22 in 10.0 mi NE 21.9 mph 26.5 mph N/A   Overcast
6:31 PM 35.6 °F 26.2 °F 32.0 °F 87% 30.24 in 10.0 mi NE 15.0 mph 19.6 mph N/A Rain Light Rain
6:49 PM 33.8 °F 27.0 °F 32.0 °F 93% 30.28 in 4.0 mi NNE 8.1 mph - N/A Snow Light Snow
7:12 PM 33.8 °F 28.6 °F 32.0 °F 93% 30.26 in 4.0 mi NE 5.8 mph - 0.01 in Snow Light Snow
7:30 PM 32.0 °F 26.4 °F 32.0 °F 100% 30.27 in 1.8 mi NE 5.8 mph - 0.01 in Snow Light Snow
7:48 PM 32.0 °F - 32.0 °F 100% 30.30 in 2.5 mi Calm Calm - 0.02 in Snow Light Snow
8:12 PM 32.0 °F 28.7 °F 32.0 °F 100% 30.30 in 3.0 mi SSW 3.5 mph - N/A Snow Light Snow
8:30 PM 32.0 °F - 32.0 °F 100% 30.30 in 2.5 mi Calm Calm - 0.01 in Snow Light Snow
8:48 PM 32.0 °F 28.7 °F 32.0 °F 100% 30.32 in 2.0 mi NNE 3.5 mph - 0.01 in Snow Light Snow
9:12 PM 32.0 °F - 32.0 °F 100% 30.33 in 1.8 mi Calm Calm - 0.01 in Snow Light Snow
9:30 PM 32.0 °F - 32.0 °F 100% 30.33 in 1.2 mi Calm Calm - 0.02 in Snow Light Snow
9:48 PM 32.0 °F - 32.0 °F 100% 30.34 in 1.5 mi Calm Calm - 0.04 in Snow Light Snow
10:12 PM 32.0 °F - 32.0 °F 100% 30.34 in 1.2 mi Calm Calm - 0.01 in Snow Snow
10:30 PM 32.0 °F 28.7 °F 32.0 °F 100% 30.34 in 1.0 mi WNW 3.5 mph - 0.03 in Snow Snow
10:48 PM 32.0 °F 28.7 °F 32.0 °F 100% 30.35 in 1.0 mi NW 3.5 mph - 0.05 in Snow Snow
11:12 PM 32.0 °F - 32.0 °F 100% 30.37 in 0.8 mi Calm Calm - 0.01 in Snow Snow
11:30 PM 32.0 °F 26.4 °F 32.0 °F 100% 30.37 in 0.5 mi ENE 5.8 mph - 0.05 in Snow Heavy Snow
11:48 PM 32.0 °F 28.7 °F 32.0 °F 100% 30.37 in 1.8 mi East 3.5 mph - 0.07 in Snow Light Snow